Regional Weather Roundup
Issued by NWS Midland/Odessa, TX

Home | Current Version | Previous Version | Text Only | Print | Product List | Glossary On
Versions: 1 2 3 4 5 6 7 8 9 10 11 12 13 14 15 16 17 18 19 20 21 22 23 24 25 26 27 28 29 30 31 32 33 34 35 36 37 38 39 40 41 42 43 44 45 46 47 48 49 50
171
ASUS44 KMAF 240401
RWRMAF
MIDLAND AREA WEATHER ROUNDUP
NATIONAL WEATHER SERVICE MIDLAND TX
1100 PM CDT MON MAY 23 2016

...IN SOUTHWEST TEXAS AND SOUTHEAST NEW MEXICO...

CITY           SKY/WX    TMP DP  RH WIND       PRES   REMARKS
ALPINE         PTCLDY    72  61  68 S18G24    29.96R
ANDREWS        FAIR      77  63  63 S13G18    29.84R
ARTESIA        CLEAR     72  21  15 W9        29.81R
BIG SPRING     CLEAR     75  67  75 SE13      29.85R
CARLSBAD       CLEAR     70  21  15 W7        29.79R
DRYDEN         NOT AVBL
FORT STOCKTON  CLEAR     73  60  63 SE23G30   29.82S
GUAD PASS      NOT AVBL
HOBBS          CLEAR     73  43  33 SE14G25   29.86R
MARFA          CLEAR     64  35  34 SE8       29.94
MIDLAND AIRPK  CLEAR     79  63  56 S13G21    29.84R
MIDLAND INTL   CLEAR     78  63  59 S12       29.84R
ODESSA         CLEAR     78  64  61 S15       29.85R
PECOS          CLEAR     80  57  45 SE20G25   29.77R
PRESIDIO       FAIR      89  31  12 N8        29.73R
SEMINOLE       CLEAR     77  56  47 S16G22    29.84R
SNYDER           N/A     76  71  84 SE18      29.84R
WINK           CLEAR     77  55  46 MISG      29.81R
$$
...OTHER STATIONS IN TEXAS...

CITY           SKY/WX    TMP DP  RH WIND       PRES   REMARKS
ABILENE        CLOUDY    76  71  85 S20G28    29.84R
AMARILLO       CLEAR     70  64  81 SE21      29.84R
AUSTIN         CLOUDY    77  71  82 SE9       29.90S
BROWNSVILLE    CLOUDY    81  76  84 SE10      29.86R
CORPUS CHRISTI CLOUDY    80  75  84 SE17G23   29.85S
DALLAS FTW     CLOUDY    78  70  76 SE10      29.89R
DEL RIO        CLOUDY    82  74  76 E16G24    29.80R
EL PASO        CLEAR     84  10   6 W12G28    29.86R
HOUSTON INT    CLOUDY    75  71  87 S7        29.92R
LUBBOCK        PTCLDY    74  64  71 S22       29.83R
SAN ANGELO     CLEAR     76  70  82 E7        29.82R
SAN ANTONIO    CLOUDY    78  73  84 SE10      29.90R
WACO           CLOUDY    78  70  76 S13       29.89S
WICHITA FALLS  NOT AVBL
$$
...OTHER LOCATIONS IN NEW MEXICO...

CITY           SKY/WX    TMP DP  RH WIND       PRES   REMARKS
ALAMAGORDO     CLEAR     68  23  18 SE3       29.87R
ALBUQUERQUE    PTCLDY    73  20  13 SW8       29.89R
CANNON AFB     CLEAR     68  38  33 S5        29.84R
CLOVIS         CLEAR     66  39  37 S8        29.83S
HOLLOMAN AFB   CLEAR     72  17  12 SW6       29.85R
ROSWELL        CLEAR     76  24  14 W9        29.80R
RUIDOSO          N/A     64  14  14 SW10      30.05R
SANTA FE       CLEAR     56  20  24 N7        29.93R
TRUTH OR CONSE CLEAR     70  18  13 W7        29.89R
TUCUMCARI      CLEAR     65  34  31 SW9       29.79R
$$




USA.gov is the U.S. government's official web portal to all federal, state and local government web resources and services.